• în Republica Moldova
  • Lista ţărilor
  • Pe 7 zile
  • Temperatura apei
  • Hartă satelitară
  • Meteo pe hartă
  • Widget-uri
  • user-avatar
    Intrare

    Meteo pe oră la Mulicy

    Astăzi, 19 August, Duminică

    Timp Temperatura Precipitaţii Vânt Presiune Umiditate
    00:00 +18°C° 0 mm 3 m/s 758 mmHg 95%
    01:00 +17°C° 0 mm 2 m/s 758 mmHg 96%
    02:00 +17°C° 0 mm 2 m/s 758 mmHg 97%
    03:00 +17°C° 0 mm 2 m/s 758 mmHg 97%
    04:00 +16°C° 0 mm 2 m/s 758 mmHg 97%
    05:00 +16°C° 0 mm 2 m/s 758 mmHg 97%
    06:00 +17°C° 0 mm 2 m/s 758 mmHg 93%
    07:00 +18°C° 0 mm 2 m/s 757 mmHg 88%
    08:00 +20°C° 0 mm 3 m/s 757 mmHg 83%
    09:00 +21°C° 0 mm 3 m/s 757 mmHg 75%
    10:00 +22°C° 0 mm 4 m/s 757 mmHg 66%
    11:00 +23°C° 0 mm 4 m/s 757 mmHg 57%
    12:00 +23°C° 0 mm 4 m/s 757 mmHg 56%
    13:00 +23°C° 0 mm 5 m/s 757 mmHg 55%
    14:00 +25°C° 0 mm 5 m/s 757 mmHg 55%
    15:00 +23°C° 0 mm 4 m/s 757 mmHg 61%
    16:00 +22°C° 0 mm 4 m/s 757 mmHg 67%
    17:00 +22°C° 0 mm 4 m/s 757 mmHg 74%
    18:00 +21°C° 0,1 mm 4 m/s 757 mmHg 80%
    19:00 +20°C° 0,1 mm 3 m/s 757 mmHg 86%
    20:00 +19°C° 0,1 mm 3 m/s 757 mmHg 92%
    21:00 +18°C° 0 mm 3 m/s 757 mmHg 93%
    22:00 +18°C° 0 mm 3 m/s 757 mmHg 95%
    23:00 +17°C° 0 mm 2 m/s 757 mmHg 97%

    Mâine, 20 August, Luni

    Timp Temperatura Precipitaţii Vânt Presiune Umiditate
    00:00 +17°C° 0 mm 2 m/s 757 mmHg 97%
    01:00 +17°C° 0 mm 2 m/s 757 mmHg 97%
    02:00 +16°C° 0 mm 2 m/s 757 mmHg 97%
    03:00 +16°C° 0,4 mm 2 m/s 756 mmHg 97%
    04:00 +17°C° 0,4 mm 2 m/s 756 mmHg 97%
    05:00 +17°C° 0,4 mm 2 m/s 756 mmHg 98%
    06:00 +17°C° 0,3 mm 3 m/s 756 mmHg 96%
    07:00 +18°C° 0,3 mm 3 m/s 755 mmHg 95%
    08:00 +18°C° 0,3 mm 4 m/s 755 mmHg 94%
    09:00 +19°C° 0,1 mm 4 m/s 755 mmHg 90%
    10:00 +19°C° 0,1 mm 4 m/s 754 mmHg 86%
    11:00 +20°C° 0,1 mm 5 m/s 754 mmHg 83%
    12:00 +21°C° 0,1 mm 5 m/s 753 mmHg 77%
    13:00 +22°C° 0,1 mm 5 m/s 753 mmHg 72%
    14:00 +23°C° 0,1 mm 5 m/s 752 mmHg 67%
    15:00 +23°C° 0,6 mm 5 m/s 751 mmHg 72%
    16:00 +23°C° 0,6 mm 4 m/s 751 mmHg 78%
    17:00 +22°C° 0,6 mm 4 m/s 750 mmHg 84%
    18:00 +21°C° 0,7 mm 4 m/s 750 mmHg 86%
    19:00 +20°C° 0,7 mm 4 m/s 749 mmHg 89%
    20:00 +19°C° 0,7 mm 4 m/s 749 mmHg 92%
    21:00 +19°C° 0,4 mm 4 m/s 748 mmHg 93%
    22:00 +17°C° 0,4 mm 5 m/s 748 mmHg 94%
    23:00 +17°C° 0,4 mm 5 m/s 748 mmHg 95%

    Poimâine, 21 August, Marţi

    Timp Temperatura Precipitaţii Vânt Presiune Umiditate
    00:00 +17°C° 0,4 mm 5 m/s 747 mmHg 95%
    01:00 +17°C° 0,4 mm 5 m/s 747 mmHg 94%
    02:00 +17°C° 0,4 mm 5 m/s 747 mmHg 94%
    03:00 +16°C° 0,1 mm 5 m/s 748 mmHg 94%
    04:00 +15°C° 0,1 mm 5 m/s 748 mmHg 95%
    05:00 +14°C° 0,1 mm 4 m/s 749 mmHg 95%
    06:00 +14°C° 0,1 mm 5 m/s 749 mmHg 92%
    07:00 +14°C° 0,1 mm 6 m/s 750 mmHg 90%
    08:00 +14°C° 0,1 mm 6 m/s 750 mmHg 87%
    09:00 +16°C° 0 mm 6 m/s 751 mmHg 77%
    10:00 +17°C° 0 mm 7 m/s 751 mmHg 66%
    11:00 +18°C° 0 mm 7 m/s 752 mmHg 55%
    12:00 +20°C° 0 mm 7 m/s 752 mmHg 53%
    13:00 +20°C° 0 mm 7 m/s 753 mmHg 51%
    14:00 +20°C° 0 mm 7 m/s 753 mmHg 49%
    15:00 +20°C° 0,1 mm 6 m/s 754 mmHg 53%
    16:00 +19°C° 0,1 mm 6 m/s 754 mmHg 57%
    17:00 +17°C° 0,1 mm 5 m/s 755 mmHg 61%
    18:00 +16°C° 0 mm 5 m/s 755 mmHg 64%
    19:00 +15°C° 0 mm 5 m/s 756 mmHg 68%
    20:00 +13°C° 0 mm 4 m/s 756 mmHg 71%
    21:00 +13°C° 0 mm 4 m/s 757 mmHg 72%
    22:00 +12°C° 0 mm 4 m/s 757 mmHg 72%
    23:00 +12°C° 0 mm 4 m/s 758 mmHg 73%

    22 August, Miercuri

    Timp Temperatura Precipitaţii Vânt Presiune Umiditate
    00:00 +12°C° 0 mm 4 m/s 758 mmHg 73%
    01:00 +11°C° 0 mm 4 m/s 758 mmHg 74%
    02:00 +11°C° 0 mm 4 m/s 759 mmHg 74%
    03:00 +10°C° 0 mm 4 m/s 759 mmHg 75%
    04:00 +10°C° 0 mm 4 m/s 760 mmHg 75%
    05:00 +10°C° 0 mm 4 m/s 760 mmHg 76%
    06:00 +11°C° 0 mm 4 m/s 761 mmHg 70%
    07:00 +12°C° 0 mm 4 m/s 761 mmHg 65%
    08:00 +14°C° 0 mm 4 m/s 761 mmHg 59%
    09:00 +15°C° 0 mm 4 m/s 761 mmHg 54%
    10:00 +17°C° 0 mm 4 m/s 762 mmHg 50%
    11:00 +18°C° 0 mm 4 m/s 762 mmHg 45%
    12:00 +19°C° 0 mm 3 m/s 762 mmHg 45%
    13:00 +19°C° 0 mm 3 m/s 762 mmHg 44%
    14:00 +20°C° 0 mm 3 m/s 761 mmHg 44%
    15:00 +20°C° 0 mm 3 m/s 761 mmHg 48%
    16:00 +19°C° 0 mm 3 m/s 761 mmHg 53%
    17:00 +19°C° 0 mm 2 m/s 761 mmHg 57%
    18:00 +18°C° 0 mm 2 m/s 761 mmHg 64%
    19:00 +16°C° 0 mm 3 m/s 761 mmHg 72%
    20:00 +14°C° 0 mm 3 m/s 761 mmHg 79%
    21:00 +14°C° 0 mm 3 m/s 761 mmHg 77%
    22:00 +14°C° 0 mm 4 m/s 761 mmHg 76%
    23:00 +14°C° 0 mm 4 m/s 761 mmHg 74%

    23 August, Joi

    Timp Temperatura Precipitaţii Vânt Presiune Umiditate
    00:00 +13°C° 0 mm 4 m/s 760 mmHg 74%
    01:00 +13°C° 0 mm 4 m/s 760 mmHg 73%
    02:00 +13°C° 0 mm 4 m/s 760 mmHg 73%
    03:00 +13°C° 0 mm 5 m/s 760 mmHg 73%
    04:00 +13°C° 0 mm 5 m/s 760 mmHg 73%
    05:00 +13°C° 0 mm 5 m/s 759 mmHg 73%
    06:00 +14°C° 0 mm 5 m/s 759 mmHg 70%
    07:00 +15°C° 0 mm 5 m/s 759 mmHg 68%
    08:00 +16°C° 0 mm 5 m/s 759 mmHg 65%
    09:00 +19°C° 0 mm 5 m/s 758 mmHg 61%
    10:00 +20°C° 0 mm 5 m/s 758 mmHg 58%
    11:00 +22°C° 0 mm 6 m/s 758 mmHg 55%
    12:00 +23°C° 0 mm 5 m/s 758 mmHg 53%
    13:00 +25°C° 0 mm 5 m/s 757 mmHg 51%
    14:00 +26°C° 0 mm 5 m/s 757 mmHg 50%
    15:00 +25°C° 0 mm 5 m/s 757 mmHg 53%
    16:00 +25°C° 0 mm 4 m/s 757 mmHg 57%
    17:00 +25°C° 0 mm 3 m/s 757 mmHg 61%
    18:00 +22°C° 0 mm 3 m/s 757 mmHg 66%
    19:00 +20°C° 0 mm 3 m/s 757 mmHg 72%
    20:00 +19°C° 0 mm 3 m/s 757 mmHg 78%
    21:00 +18°C° 0 mm 3 m/s 757 mmHg 80%
    22:00 +18°C° 0 mm 3 m/s 757 mmHg 82%
    23:00 +17°C° 0 mm 3 m/s 757 mmHg 85%

    24 August, Vineri

    Timp Temperatura Precipitaţii Vânt Presiune Umiditate
    00:00 +17°C° 0 mm 3 m/s 757 mmHg 86%
    01:00 +16°C° 0 mm 3 m/s 757 mmHg 88%
    02:00 +16°C° 0 mm 3 m/s 757 mmHg 90%
    03:00 +16°C° 0 mm 3 m/s 757 mmHg 90%
    04:00 +14°C° 0 mm 3 m/s 757 mmHg 91%
    05:00 +14°C° 0 mm 3 m/s 757 mmHg 91%
    06:00 +16°C° 0 mm 3 m/s 756 mmHg 85%
    07:00 +18°C° 0 mm 3 m/s 756 mmHg 80%
    08:00 +19°C° 0 mm 4 m/s 756 mmHg 74%
    09:00 +21°C° 0 mm 4 m/s 756 mmHg 68%
    10:00 +22°C° 0 mm 4 m/s 756 mmHg 61%
    11:00 +25°C° 0 mm 5 m/s 756 mmHg 54%
    12:00 +26°C° 0 mm 5 m/s 755 mmHg 52%
    13:00 +26°C° 0 mm 5 m/s 755 mmHg 50%
    14:00 +27°C° 0 mm 5 m/s 755 mmHg 48%
    15:00 +26°C° 0 mm 5 m/s 755 mmHg 51%
    16:00 +26°C° 0 mm 4 m/s 754 mmHg 53%
    17:00 +26°C° 0 mm 4 m/s 754 mmHg 55%
    18:00 +23°C° 0 mm 4 m/s 754 mmHg 59%
    19:00 +21°C° 0 mm 4 m/s 754 mmHg 64%
    20:00 +20°C° 0 mm 4 m/s 754 mmHg 68%
    21:00 +19°C° 0 mm 4 m/s 753 mmHg 67%
    22:00 +19°C° 0 mm 4 m/s 753 mmHg 67%
    23:00 +19°C° 0 mm 5 m/s 753 mmHg 67%
    Arată mai mult